K6OUA-11 Weather Reports


time (UTC)temp
F
wind
direction
speed
knots
gust
knots
rain 1hr
in
rain 24hr
in
rain mn
in
humidity
%
barometer
mb
20190325235329 71 254 3.5 5.2 0.00 0.00 0.00 52 1012.3
20190325234725 71 243 2.6 4.3 0.00 0.00 0.00 53 1012.3
20190325234424 71 216 4.3 5.2 0.00 0.00 0.00 53 1012.3
20190325234125 71 270 4.3 6.1 0.00 0.00 0.00 52 1012.2
20190325233823 71 274 3.5 6.1 0.00 0.00 0.00 52 1012.2
20190325233522 71 261 1.7 3.5 0.00 0.00 0.00 52 1012.3
20190325232918 71 245 3.5 5.2 0.00 0.00 0.00 52 1012.3
20190325232619 71 272 3.5 5.2 0.00 0.00 0.00 52 1012.3
20190325232316 72 240 3.5 6.1 0.00 0.00 0.00 52 1012.3
20190325231715 72 245 0.9 7.0 0.00 0.00 0.00 52 1012.4
20190325231415 72 213 2.6 5.2 0.00 0.00 0.00 52 1012.4
20190325230812 72 254 3.5 6.1 0.00 0.00 0.00 52 1012.4
20190325230511 72 243 2.6 5.2 0.00 0.00 0.00 52 1012.4
20190325230210 72 261 3.5 5.2 0.00 0.00 0.00 52 1012.5
20190325225907 72 204 2.6 7.0 0.00 0.00 0.00 52 1012.4
20190325225608 72 245 4.3 7.0 0.00 0.00 0.00 52 1012.6
20190325225307 72 229 2.6 7.8 0.00 0.00 0.00 52 1012.8
20190325225004 72 254 5.2 7.8 0.00 0.00 0.00 52 1012.5
20190325224705 72 315 4.3 6.1 0.00 0.00 0.00 52 1012.6
20190325224403 72 285 6.1 6.1 0.00 0.00 0.00 52 1012.6
20190325224103 72 231 6.1 6.1 0.00 0.00 0.00 53 1012.6
20190325223759 72 261 6.1 6.1 0.00 0.00 0.00 52 1012.5
20190325223458 72 252 4.3 5.2 0.00 0.00 0.00 52 1012.5
20190325223159 72 270 2.6 4.3 0.00 0.00 0.00 53 1012.6
20190325222858 72 261 2.6 7.0 0.00 0.00 0.00 53 1012.7
20190325222557 72 270 3.5 7.0 0.00 0.00 0.00 53 1012.7
20190325222254 72 272 7.8 8.7 0.00 0.00 0.00 52 1012.6
20190325222032 72 230 4.3 7.0 0.00 0.00 0.00 52 1012.7
20190325221955 72 230 4.3 7.0 0.00 0.00 0.00 52 1012.7
20190325221652 72 256 6.1 6.1 0.00 0.00 0.00 53 1012.5
20190325221352 72 249 4.3 7.0 0.00 0.00 0.00 52 1012.6
20190325221050 72 265 5.2 7.0 0.00 0.00 0.00 52 1012.4
20190325220750 72 238 6.1 7.8 0.00 0.00 0.00 52 1012.5
20190325220148 72 252 3.5 6.1 0.00 0.00 0.00 52 1012.8
20190325215846 73 215 3.5 6.1 0.00 0.00 0.00 52 1012.7
20190325215243 73 261 4.3 6.1 0.00 0.00 0.00 52 1012.6
20190325214943 73 247 4.3 6.1 0.00 0.00 0.00 53 1012.7
20190325214642 73 247 5.2 7.0 0.00 0.00 0.00 53 1012.7
20190325214341 73 261 6.1 6.1 0.00 0.00 0.00 53 1012.6
20190325214038 73 225 2.6 6.1 0.00 0.00 0.00 54 1012.6
20190325213739 73 232 4.3 6.1 0.00 0.00 0.00 54 1012.7
20190325213436 73 243 5.2 6.1 0.00 0.00 0.00 54 1012.6
20190325213135 73 252 3.5 6.1 0.00 0.00 0.00 54 1012.7
20190325212836 73 202 0.9 6.1 0.00 0.00 0.00 55 1012.7
20190325212535 73 254 3.5 7.0 0.00 0.00 0.00 54 1012.7
20190325212233 74 247 3.5 7.0 0.00 0.00 0.00 53 1012.8
20190325211932 74 208 2.6 5.2 0.00 0.00 0.00 54 1012.9
20190325211630 74 236 4.3 7.0 0.00 0.00 0.00 54 1012.7
20190325211330 74 231 5.2 9.6 0.00 0.00 0.00 54 1012.8
20190325210728 74 240 4.3 8.7 0.00 0.00 0.00 54 1012.8
20190325210127 75 235 2.6 9.6 0.00 0.00 0.00 53 1012.9
20190325205823 75 265 5.2 9.6 0.00 0.00 0.00 53 1012.8
20190325205223 75 265 5.2 7.0 0.00 0.00 0.00 53 1012.7
20190325204920 76 236 4.3 7.0 0.00 0.00 0.00 52 1012.7
20190325204619 76 236 5.2 7.0 0.00 0.00 0.00 52 1012.7
20190325204318 76 245 7.0 7.8 0.00 0.00 0.00 52 1012.7
20190325203715 76 227 5.2 8.7 0.00 0.00 0.00 51 1012.7
20190325203416 77 261 7.0 7.8 0.00 0.00 0.00 49 1012.8
20190325203116 77 247 4.3 9.6 0.00 0.00 0.00 49 1012.8
20190325203114 77 247 4.3 9.6 0.00 0.00 0.00 49 1012.8
20190325202812 77 285 7.8 9.6 0.00 0.00 0.00 49 1012.8
20190325202513 76 220 2.6 10.4 0.00 0.00 0.00 49 1012.7
20190325201608 76 261 1.7 5.2 0.00 0.00 0.00 49 1012.9
20190325201306 76 247 3.5 5.2 0.00 0.00 0.00 49 1012.9
20190325201008 76 252 2.6 7.0 0.00 0.00 0.00 48 1013.0
20190325200709 76 270 5.2 10.4 0.00 0.00 0.00 48 1013.0
20190325200706 76 270 5.2 10.4 0.00 0.00 0.00 48 1013.0
20190325200106 76 274 3.5 7.0 0.00 0.00 0.00 48 1013.0
20190325200103 76 274 3.5 7.0 0.00 0.00 0.00 48 1013.0
20190325195803 76 272 5.2 6.1 0.00 0.00 0.00 49 1013.1
20190325195502 76 261 2.6 6.1 0.00 0.00 0.00 49 1013.1
20190325194858 75 310 2.6 6.1 0.00 0.00 0.00 48 1013.2
20190325194558 75 285 2.6 6.1 0.00 0.00 0.00 49 1013.3
20190325194257 75 258 4.3 4.3 0.00 0.00 0.00 51 1013.2
20190325193956 75 256 1.7 6.1 0.00 0.00 0.00 50 1013.3
20190325193354 75 243 3.5 6.1 0.00 0.00 0.00 50 1013.4
20190325193053 75 231 2.6 4.3 0.00 0.00 0.00 51 1013.5
20190325192750 75 270 1.7 4.3 0.00 0.00 0.00 51 1013.6
20190325192452 75 245 3.5 6.1 0.00 0.00 0.00 52 1013.6
20190325192450 75 245 3.5 6.1 0.00 0.00 0.00 52 1013.6
20190325192148 74 267 3.5 5.2 0.00 0.00 0.00 51 1013.6
20190325191546 74 254 4.3 6.1 0.00 0.00 0.00 52 1013.8
20190325190943 74 267 3.5 6.1 0.00 0.00 0.00 52 1013.8
20190325190644 74 276 5.2 6.1 0.00 0.00 0.00 52 1013.9
20190325190343 74 270 2.6 5.2 0.00 0.00 0.00 53 1013.9
20190325185741 74 229 2.6 3.5 0.00 0.00 0.00 55 1014.0
20190325185438 74 249 3.5 6.1 0.00 0.00 0.00 55 1014.0
20190325184837 74 227 2.6 3.5 0.00 0.00 0.00 56 1014.0
20190325184233 73 261 2.6 3.5 0.00 0.00 0.00 57 1013.9
20190325183932 73 180 0.0 4.3 0.00 0.00 0.00 57 1014.0
20190325183330 72 279 5.2 6.1 0.00 0.00 0.00 58 1014.1
20190325183031 72 240 3.5 3.5 0.00 0.00 0.00 59 1014.2
20190325182728 72 157 0.0 4.3 0.00 0.00 0.00 60 1014.2
20190325182126 71 225 3.5 4.3 0.00 0.00 0.00 61 1014.2
20190325181825 71 270 3.5 4.3 0.00 0.00 0.00 61 1014.2
20190325181523 71 252 2.6 7.0 0.00 0.00 0.00 60 1014.3
20190325180923 71 227 1.7 5.2 0.00 0.00 0.00 61 1014.3
20190325180622 72 265 2.6 5.2 0.00 0.00 0.00 60 1014.3
20190325180321 72 265 2.6 5.2 0.00 0.00 0.00 60 1014.3
20190325175719 73 270 5.2 7.8 0.00 0.00 0.00 60 1014.3
20190325175416 73 265 3.5 7.8 0.00 0.00 0.00 60 1014.1
20190325175116 73 270 4.3 6.1 0.00 0.00 0.00 61 1014.2
20190325174815 73 225 0.0 2.6 0.00 0.00 0.00 62 1014.3
20190325174514 73 270 0.9 2.6 0.00 0.00 0.00 63 1014.2
20190325174213 73 225 0.9 1.7 0.00 0.00 0.00 63 1014.3
20190325173910 72 225 0.9 2.6 0.00 0.00 0.00 64 1014.4
20190325173611 72 180 0.9 2.6 0.00 0.00 0.00 64 1014.4
20190325173308 72 180 0.9 3.5 0.00 0.00 0.00 65 1014.5
20190325173009 71 225 1.7 3.5 0.00 0.00 0.00 65 1014.5
20190325172407 71 135 0.9 2.6 0.00 0.00 0.00 66 1014.7
20190325172105 71 180 0.9 3.5 0.00 0.00 0.00 65 1014.6
20190325171504 70 90 2.6 4.3 0.00 0.00 0.00 67 1014.6
20190325171202 70 171 0.9 3.5 0.00 0.00 0.00 67 1014.7
20190325170558 70 90 0.0 0.9 0.00 0.00 0.00 68 1014.8
20190325170257 69 90 0.9 2.6 0.00 0.00 0.00 69 1014.9
20190325165957 69 150 0.9 0.9 0.00 0.00 0.00 70 1014.6
20190325165657 69 236 0.9 2.6 0.00 0.00 0.00 69 1014.6
20190325165356 69 270 0.9 1.7 0.00 0.00 0.00 69 1014.7
20190325165053 69 270 1.7 2.6 0.00 0.00 0.00 70 1014.6
20190325164751 68 225 1.7 1.7 0.00 0.00 0.00 71 1014.7
20190325164452 68 225 0.9 1.7 0.00 0.00 0.00 72 1014.7
20190325164151 68 270 0.9 1.7 0.00 0.00 0.00 73 1014.8
20190325163850 67 270 0.9 1.7 0.00 0.00 0.00 73 1014.7
20190325163246 66 225 0.0 1.7 0.00 0.00 0.00 75 1014.9
20190325162945 66 225 0.9 0.9 0.00 0.00 0.00 76 1015.1
20190325162344 64 270 0.9 1.7 0.00 0.00 0.00 76 1014.8
20190325162041 64 270 1.7 1.7 0.00 0.00 0.00 76 1014.9
20190325161740 64 270 0.9 2.6 0.00 0.00 0.00 78 1014.8
20190325160839 63 180 0.9 1.7 0.00 0.00 0.00 81 1014.5
20190325160536 63 67 1.7 1.7 0.00 0.00 0.00 81 1014.8
20190325160237 62 67 0.9 1.7 0.00 0.00 0.00 81 1014.6
20190325155633 62 90 1.7 1.7 0.00 0.00 0.00 84 1014.8
20190325155333 61 135 0.0 1.7 0.00 0.00 0.00 85 1014.6
20190325154428 58 135 0.9 0.9 0.00 0.00 0.00 88 1014.5
20190325154127 58 135 0.9 0.9 0.00 0.00 0.00 88 1014.4
20190325153828 57 135 0.0 0.0 0.00 0.00 0.00 88 1014.4
20190325152622 55 135 0.0 0.9 0.00 0.00 0.00 89 1014.2
20190325152322 54 135 0.0 0.9 0.00 0.00 0.00 89 1014.1
20190325152021 54 157 0.9 1.7 0.00 0.00 0.00 89 1014.0
20190325151718 54 108 0.9 1.7 0.00 0.00 0.00 90 1013.8
20190325151419 53 90 0.9 0.9 0.00 0.00 0.00 91 1013.9
20190325150812 52 90 0.0 0.9 0.00 0.00 0.00 92 1013.7
20190325150210 51 90 0.0 0.9 0.00 0.00 0.00 93 1013.7
20190325145907 51 90 0.0 0.0 0.00 0.00 0.00 93 1013.8
20190325145606 50 90 0.0 0.9 0.00 0.00 0.00 93 1013.7
20190325145305 50 90 0.0 0.9 0.00 0.00 0.00 93 1013.7
20190325145006 49 90 0.9 0.9 0.00 0.00 0.00 93 1013.5
20190325144702 49 90 0.0 0.9 0.00 0.00 0.00 93 1013.5
20190325144403 48 90 0.0 0.0 0.00 0.00 0.00 93 1013.5
20190325143802 47 90 0.0 0.9 0.00 0.00 0.00 93 1013.5
20190325143500 47 90 0.9 0.9 0.00 0.00 0.00 93 1013.4
20190325143157 46 180 0.9 1.7 0.00 0.00 0.00 93 1013.2
20190325142858 46 45 0.9 1.7 0.00 0.00 0.00 93 1013.3
20190325142554 46 135 0.0 0.9 0.00 0.00 0.00 93 1013.1
20190325142253 46 135 0.9 1.7 0.00 0.00 0.00 93 1013.1
20190325141954 45 135 0.9 1.7 0.00 0.00 0.00 93 1013.1
20190325141651 45 90 1.7 1.7 0.00 0.00 0.00 93 1013.2
20190325141352 45 135 1.7 1.7 0.00 0.00 0.00 93 1013.1
20190325141051 45 90 2.6 2.6 0.00 0.00 0.00 93 1013.1
20190325140750 44 108 1.7 1.7 0.00 0.00 0.00 93 1013.0
20190325140449 44 135 0.9 0.9 0.00 0.00 0.00 93 1013.0
20190325135845 44 157 0.9 0.9 0.00 0.00 0.00 93 1012.9
20190325135544 44 157 0.0 2.6 0.00 0.00 0.00 94 1012.8
20190325134943 44 90 2.6 3.5 0.00 0.00 0.00 94 1012.8
20190325134644 44 45 0.9 1.7 0.00 0.00 0.00 94 1012.9
20190325134341 45 45 0.9 0.9 0.00 0.00 0.00 94 1012.9
20190325133737 45 87 0.9 2.6 0.00 0.00 0.00 95 1012.8
20190325133437 45 87 1.7 3.5 0.00 0.00 0.00 95 1012.8
20190325132835 45 58 2.6 2.6 0.00 0.00 0.00 95 1012.9
20190325132534 45 85 2.6 2.6 0.00 0.00 0.00 95 1012.8
20190325132233 45 96 0.9 4.3 0.00 0.00 0.00 95 1012.8
20190325131930 45 90 1.7 4.3 0.00 0.00 0.00 95 1012.7
20190325131629 45 90 2.6 2.6 0.00 0.00 0.00 95 1012.6
20190325131330 45 65 1.7 3.5 0.00 0.00 0.00 95 1012.7
20190325131029 45 90 3.5 4.3 0.00 0.00 0.00 95 1012.7
20190325130729 45 90 4.3 5.2 0.00 0.00 0.00 95 1012.7
20190325130425 45 90 5.2 5.2 0.00 0.00 0.00 95 1012.8
20190325130123 45 114 2.6 5.2 0.00 0.00 0.00 95 1012.7
20190325125824 45 85 4.3 6.1 0.00 0.00 0.00 95 1012.8
20190325125521 45 90 2.6 6.1 0.00 0.00 0.00 95 1012.7
20190325125222 45 90 4.3 5.2 0.00 0.00 0.00 95 1012.8
20190325124921 45 90 7.0 7.0 0.00 0.00 0.00 95 1012.8
20190325124620 45 90 4.3 6.1 0.00 0.00 0.00 95 1012.8
20190325124018 45 87 3.5 5.2 0.00 0.00 0.00 95 1012.8
20190325123717 45 87 2.6 5.2 0.00 0.00 0.00 95 1012.9
20190325123414 45 90 5.2 5.2 0.00 0.00 0.00 95 1012.9
20190325123114 45 90 3.5 4.3 0.00 0.00 0.00 95 1012.9
20190325122811 45 81 2.6 5.2 0.00 0.00 0.00 95 1013.0
20190325122209 45 81 3.5 5.2 0.00 0.00 0.00 95 1012.9
20190325121607 45 90 4.3 6.1 0.00 0.00 0.00 95 1013.0
20190325121005 45 83 3.5 4.3 0.00 0.00 0.00 95 1013.0
20190325120705 45 87 3.5 4.3 0.00 0.00 0.00 95 1013.1
20190325120403 45 90 3.5 4.3 0.00 0.00 0.00 94 1013.0
20190325120101 45 90 3.5 4.3 0.00 0.00 0.00 95 1013.1
20190325115800 45 90 3.5 4.3 0.00 0.00 0.00 94 1013.1
20190325115501 45 90 3.5 5.2 0.00 0.00 0.00 95 1013.0
20190325115158 45 83 3.5 5.2 0.00 0.00 0.00 95 1013.1
20190325114857 45 63 2.6 4.3 0.00 0.00 0.00 95 1013.2
20190325114556 45 81 2.6 5.2 0.00 0.00 0.00 95 1013.2
20190325114256 45 83 2.6 5.2 0.00 0.00 0.00 95 1013.1
20190325113954 45 85 4.3 5.2 0.00 0.00 0.00 95 1013.1
20190325113653 45 81 3.5 6.1 0.00 0.00 0.00 95 1013.2
20190325113353 45 90 2.6 7.0 0.00 0.00 0.00 95 1013.2
20190325113052 45 87 4.3 7.0 0.00 0.00 0.00 95 1013.2
20190325112751 45 92 5.2 6.1 0.00 0.00 0.00 95 1013.2
20190325112449 45 90 4.3 6.1 0.00 0.00 0.00 95 1013.4
20190325112147 45 90 6.1 6.1 0.00 0.00 0.00 95 1013.3
20190325111846 45 90 5.2 5.2 0.00 0.00 0.00 94 1013.3
20190325111545 45 87 3.5 5.2 0.00 0.00 0.00 94 1013.4
20190325110944 45 90 3.5 5.2 0.00 0.00 0.00 94 1013.4
20190325110342 45 90 2.6 3.5 0.00 0.00 0.00 94 1013.4
20190325110039 45 85 3.5 3.5 0.00 0.00 0.00 94 1013.3
20190325105738 45 87 3.5 4.3 0.00 0.00 0.00 94 1013.4
20190325105437 45 90 3.5 3.5 0.00 0.00 0.00 95 1013.4
20190325105136 45 85 2.6 3.5 0.00 0.00 0.00 94 1013.3
20190325104837 45 90 3.5 4.3 0.00 0.00 0.00 94 1013.3
20190325104537 45 90 3.5 4.3 0.00 0.00 0.00 94 1013.4
20190325104233 45 87 3.5 5.2 0.00 0.00 0.00 94 1013.4
20190325103931 45 87 3.5 5.2 0.00 0.00 0.00 94 1013.6
20190325103630 45 92 5.2 5.2 0.00 0.00 0.00 94 1013.5
20190325103331 45 90 3.5 4.3 0.00 0.00 0.00 94 1013.6
20190325103028 45 90 2.6 4.3 0.00 0.00 0.00 94 1013.6
20190325102727 45 90 4.3 4.3 0.00 0.00 0.00 93 1013.7
20190325102428 45 92 1.7 4.3 0.00 0.00 0.00 94 1013.6
20190325102125 45 90 3.5 4.3 0.00 0.00 0.00 93 1013.7
20190325101826 46 83 2.6 4.3 0.00 0.00 0.00 94 1013.6
20190325101523 46 90 1.7 5.2 0.00 0.00 0.00 93 1013.6
20190325101224 46 87 5.2 5.2 0.00 0.00 0.00 93 1013.7
20190325100922 46 90 2.6 5.2 0.00 0.00 0.00 94 1013.7
20190325100619 46 90 3.5 5.2 0.00 0.00 0.00 93 1013.8
20190325100320 46 90 1.7 3.5 0.00 0.00 0.00 93 1013.8
20190325100019 46 90 3.5 4.3 0.00 0.00 0.00 93 1013.8
20190325095716 46 90 3.5 4.3 0.00 0.00 0.00 93 1013.8
20190325095417 46 90 2.6 3.5 0.00 0.00 0.00 93 1013.9
20190325095114 46 87 2.6 4.3 0.00 0.00 0.00 93 1013.8
20190325094512 46 90 2.6 5.2 0.00 0.00 0.00 93 1014.0
20190325094211 46 90 3.5 5.2 0.00 0.00 0.00 93 1013.9
20190325093911 46 90 3.5 4.3 0.00 0.00 0.00 93 1014.1
20190325093307 46 85 3.5 4.3 0.00 0.00 0.00 93 1014.1
20190325093008 46 96 2.6 3.5 0.00 0.00 0.00 93 1014.1
20190325092705 46 90 3.5 4.3 0.00 0.00 0.00 93 1014.1
20190325092405 46 90 3.5 3.5 0.00 0.00 0.00 93 1014.1
20190325092105 46 81 2.6 2.6 0.00 0.00 0.00 93 1014.2
20190325091802 46 76 1.7 2.6 0.00 0.00 0.00 93 1014.1
20190325091501 46 42 2.6 2.6 0.00 0.00 0.00 93 1014.2
20190325090858 46 49 1.7 2.6 0.00 0.00 0.00 93 1014.3
20190325090559 46 45 1.7 2.6 0.00 0.00 0.00 92 1014.4
20190325090256 46 60 1.7 2.6 0.00 0.00 0.00 92 1014.4
20190325085955 46 54 1.7 2.6 0.00 0.00 0.00 92 1014.4
20190325085654 46 47 1.7 2.6 0.00 0.00 0.00 92 1014.5
20190325085353 46 90 2.6 2.6 0.00 0.00 0.00 92 1014.5
20190325085052 46 74 2.6 2.6 0.00 0.00 0.00 92 1014.5
20190325084450 47 90 1.7 3.5 0.00 0.00 0.00 92 1014.5
20190325084148 47 85 2.6 3.5 0.00 0.00 0.00 92 1014.6
20190325083849 47 87 2.6 3.5 0.00 0.00 0.00 92 1014.6
20190325083546 47 45 1.7 2.6 0.00 0.00 0.00 92 1014.6
20190325083245 47 90 2.6 3.5 0.00 0.00 0.00 92 1014.6
20190325082946 47 87 2.6 3.5 0.00 0.00 0.00 92 1014.7
20190325082643 47 90 2.6 3.5 0.00 0.00 0.00 93 1014.7
20190325082344 47 90 2.6 2.6 0.00 0.00 0.00 92 1014.6
20190325082041 47 101 2.6 2.6 0.00 0.00 0.00 92 1014.6
20190325081740 47 126 0.9 1.7 0.00 0.00 0.00 92 1014.6
20190325081438 47 135 0.9 1.7 0.00 0.00 0.00 92 1014.7
20190325080838 47 90 2.6 2.6 0.00 0.00 0.00 92 1014.7
20190325080535 47 105 1.7 3.5 0.00 0.00 0.00 92 1014.8
20190325080234 47 85 1.7 1.7 0.00 0.00 0.00 92 1014.9
20190325075634 47 76 0.9 2.6 0.00 0.00 0.00 91 1014.8
20190325075331 47 49 1.7 3.5 0.00 0.00 0.00 92 1014.9
20190325075030 47 78 1.7 3.5 0.00 0.00 0.00 91 1015.0
20190325074730 47 90 3.5 3.5 0.00 0.00 0.00 92 1014.9
20190325074427 47 90 2.6 2.6 0.00 0.00 0.00 91 1015.1
20190325074126 47 90 2.6 2.6 0.00 0.00 0.00 91 1015.0
20190325073827 47 67 0.9 1.7 0.00 0.00 0.00 91 1015.0
20190325073524 46 126 1.7 1.7 0.00 0.00 0.00 92 1015.1
20190325072922 46 103 1.7 3.5 0.00 0.00 0.00 91 1015.1
20190325072621 46 83 1.7 2.6 0.00 0.00 0.00 92 1015.1
20190325072320 46 85 1.7 2.6 0.00 0.00 0.00 92 1015.0
20190325072020 46 135 0.9 1.7 0.00 0.00 0.00 91 1015.1
20190325071717 46 180 0.0 1.7 0.00 0.00 0.00 91 1015.0
20190325071418 46 121 0.9 2.6 0.00 0.00 0.00 91 1015.1
20190325071115 46 123 1.7 2.6 0.00 0.00 0.00 91 1015.0
20190325070814 46 45 0.9 2.6 0.00 0.00 0.00 90 1015.0
20190325070213 46 0 0.0 0.9 0.00 0.00 0.00 89 1015.0
20190325065911 46 0 0.9 0.9 0.00 0.00 0.00 89 1015.2
20190325065611 46 45 0.0 0.9 0.00 0.00 0.00 89 1015.1
20190325065309 46 45 0.0 0.9 0.00 0.00 0.00 89 1015.2
20190325065007 46 315 0.9 1.7 0.00 0.00 0.00 89 1015.1
20190325064405 46 315 0.0 0.9 0.00 0.00 0.00 89 1015.2
20190325064105 46 315 0.9 0.9 0.00 0.00 0.00 88 1015.2
20190325063805 46 315 0.0 0.9 0.00 0.00 0.00 89 1015.2
20190325063502 46 315 0.0 0.9 0.00 0.00 0.00 88 1015.2
20190325063201 46 315 0.9 0.9 0.00 0.00 0.00 88 1015.2
20190325062600 46 270 0.0 0.0 0.00 0.00 0.00 88 1015.1
20190325062257 47 270 0.0 1.7 0.00 0.00 0.00 89 1015.2
20190325061956 46 270 0.9 1.7 0.00 0.00 0.00 89 1015.2
20190325061655 46 301 0.0 1.7 0.00 0.00 0.00 88 1015.2
20190325061354 46 0 0.0 0.0 0.00 0.00 0.00 88 1015.0
20190325061055 46 0 0.0 0.0 0.00 0.00 0.00 88 1015.0
20190325060754 46 0 0.0 0.9 0.00 0.00 0.00 87 1015.0
20190325060453 46 0 0.0 0.9 0.00 0.00 0.00 87 1015.0
20190325060150 46 22 0.9 0.9 0.00 0.00 0.00 87 1014.9
20190325055850 46 22 0.0 0.9 0.00 0.00 0.00 87 1015.0
20190325055548 47 22 0.0 0.0 0.00 0.00 0.00 86 1015.1
20190325055246 47 22 0.0 0.0 0.00 0.00 0.00 86 1015.0
20190325054945 47 22 0.0 0.0 0.00 0.00 0.00 85 1015.0
20190325054644 47 22 0.0 0.0 0.00 0.00 0.00 85 1015.0
20190325054345 47 22 0.0 0.0 0.00 0.00 0.00 85 1015.0
20190325054042 47 22 0.0 0.9 0.00 0.00 0.00 86 1015.0
20190325053741 47 22 0.0 0.0 0.00 0.00 0.00 85 1014.9
20190325053139 47 22 0.0 0.9 0.00 0.00 0.00 86 1015.0
20190325052838 47 22 0.0 0.0 0.00 0.00 0.00 85 1015.0
20190325052538 47 22 0.0 0.9 0.00 0.00 0.00 85 1014.9
20190325052237 47 22 0.0 0.0 0.00 0.00 0.00 85 1014.9
20190325051635 47 22 0.0 0.9 0.00 0.00 0.00 85 1015.0
20190325051334 48 22 0.0 0.9 0.00 0.00 0.00 85 1014.9
20190325050730 48 13 0.9 0.9 0.00 0.00 0.00 85 1015.1
20190325050429 48 0 0.0 0.9 0.00 0.00 0.00 85 1015.0
20190325045826 48 0 0.0 1.7 0.00 0.00 0.00 84 1015.2
20190325045527 48 0 0.9 0.9 0.00 0.00 0.00 84 1015.2
20190325045224 48 0 0.0 0.9 0.00 0.00 0.00 83 1015.1
20190325044923 48 0 0.0 0.9 0.00 0.00 0.00 83 1015.1
20190325044321 48 0 0.0 0.9 0.00 0.00 0.00 83 1015.2
20190325044022 49 0 0.9 0.9 0.00 0.00 0.00 83 1015.1
20190325043117 49 0 0.0 0.0 0.00 0.00 0.00 81 1015.0
20190325042815 49 0 0.0 0.0 0.00 0.00 0.00 81 1015.0
20190325042514 49 0 0.0 0.0 0.00 0.00 0.00 81 1015.0
20190325042215 50 0 0.0 0.0 0.00 0.00 0.00 81 1014.9
20190325041912 50 0 0.0 0.0 0.00 0.00 0.00 81 1014.9
20190325041611 50 0 0.0 0.9 0.00 0.00 0.00 82 1014.9
20190325041310 50 0 0.9 0.9 0.00 0.00 0.00 82 1015.0
20190325041009 50 0 0.9 0.9 0.00 0.00 0.00 82 1015.0
20190325040709 50 0 0.9 0.9 0.00 0.00 0.00 81 1015.1
20190325040407 50 0 0.9 1.7 0.00 0.00 0.00 81 1015.0
20190325040108 50 0 0.9 0.9 0.00 0.00 0.00 80 1015.0
20190325035806 50 0 0.0 0.9 0.00 0.00 0.00 80 1015.0
20190325035503 50 0 0.0 0.0 0.00 0.00 0.00 79 1015.0
20190325035204 51 0 0.0 0.9 0.00 0.00 0.00 80 1014.8
20190325034600 51 0 0.9 1.7 0.00 0.00 0.00 79 1014.8
20190325033658 52 0 0.9 1.7 0.00 0.00 0.00 77 1014.6
20190325033356 52 249 0.0 0.9 0.00 0.00 0.00 77 1014.5
20190325033056 52 270 0.9 0.9 0.00 0.00 0.00 77 1014.6
20190325032755 52 315 0.9 0.9 0.00 0.00 0.00 77 1014.5
20190325032452 52 270 0.9 0.9 0.00 0.00 0.00 77 1014.5
20190325032151 53 270 0.9 1.7 0.00 0.00 0.00 76 1014.5
20190325031852 53 270 1.7 2.6 0.00 0.00 0.00 76 1014.7
20190325031549 53 270 1.7 2.6 0.00 0.00 0.00 76 1014.5
20190325030943 53 283 0.9 1.7 0.00 0.00 0.00 75 1014.4
20190325030334 53 270 2.6 2.6 0.00 0.00 0.00 73 1014.6
20190325030033 54 225 0.0 0.9 0.00 0.00 0.00 72 1014.3
20190325025732 54 225 0.9 0.9 0.00 0.00 0.00 72 1014.4
20190325025433 54 225 0.0 0.9 0.00 0.00 0.00 72 1014.3
20190325024829 55 270 1.7 2.6 0.00 0.00 0.00 72 1014.4
20190325024528 55 270 0.9 3.5 0.00 0.00 0.00 72 1014.4
20190325024227 55 270 0.9 4.3 0.00 0.00 0.00 72 1014.3
20190325023927 55 267 3.5 4.3 0.00 0.00 0.00 70 1014.3
20190325023625 55 263 1.7 2.6 0.00 0.00 0.00 70 1014.3
20190325023326 55 229 0.9 1.7 0.00 0.00 0.00 69 1014.2
20190325023025 56 225 1.7 1.7 0.00 0.00 0.00 69 1014.2
20190325022723 56 270 0.9 3.5 0.00 0.00 0.00 69 1014.3
20190325022420 56 254 1.7 3.5 0.00 0.00 0.00 68 1014.3
20190325022119 57 267 0.9 3.5 0.00 0.00 0.00 68 1014.2
20190325021216 58 247 1.7 3.5 0.00 0.00 0.00 66 1014.0
20190325020314 59 243 2.6 3.5 0.00 0.00 0.00 65 1014.2
20190325020013 60 270 1.7 3.5 0.00 0.00 0.00 64 1014.2
20190325015712 60 256 2.6 3.5 0.00 0.00 0.00 63 1014.3
20190325015411 61 270 1.7 2.6 0.00 0.00 0.00 63 1014.2
20190325015110 61 234 2.6 2.6 0.00 0.00 0.00 63 1014.0
20190325014809 62 270 0.9 2.6 0.00 0.00 0.00 62 1014.1
20190325014508 62 229 0.9 2.6 0.00 0.00 0.00 62 1014.1
20190325014205 62 229 1.7 1.7 0.00 0.00 0.00 61 1014.1
20190325013907 63 247 0.9 3.5 0.00 0.00 0.00 61 1013.9
20190325013602 63 225 0.9 3.5 0.00 0.00 0.00 61 1013.9
20190325013301 64 213 0.9 3.5 0.00 0.00 0.00 61 1014.2
20190325013002 64 231 1.7 3.5 0.00 0.00 0.00 61 1014.4
20190325012701 65 261 0.9 2.6 0.00 0.00 0.00 60 1014.1
20190325012358 65 252 1.7 3.5 0.00 0.00 0.00 60 1014.0
20190325012057 66 225 0.9 3.5 0.00 0.00 0.00 60 1014.2
20190325011758 66 225 0.9 1.7 0.00 0.00 0.00 59 1014.1
20190325011457 67 270 0.9 3.5 0.00 0.00 0.00 59 1014.1
20190325011156 67 270 1.7 4.3 0.00 0.00 0.00 58 1013.9
20190325010854 67 315 1.7 2.6 0.00 0.00 0.00 59 1013.9
20190325010551 68 215 0.9 2.6 0.00 0.00 0.00 59 1013.9
20190325010252 68 270 0.9 2.6 0.00 0.00 0.00 59 1014.0
20190325005951 68 222 0.9 3.5 0.00 0.00 0.00 59 1014.0
20190325005650 68 180 1.7 1.7 0.00 0.00 0.00 59 1014.0
20190325005349 68 225 1.7 3.5 0.00 0.00 0.00 58 1014.0
20190325005046 68 247 0.9 2.6 0.00 0.00 0.00 58 1014.0
20190325004446 68 256 2.6 4.3 0.00 0.00 0.00 58 1013.8
20190325004145 68 222 1.7 3.5 0.00 0.00 0.00 58 1013.8
20190325003542 68 258 4.3 6.1 0.00 0.00 0.00 58 1013.9
20190325003239 68 267 3.5 5.2 0.00 0.00 0.00 58 1014.0
20190325002941 69 270 4.3 4.3 0.00 0.00 0.00 58 1014.0
20190325002718 68 240 3.5 4.3 0.00 0.00 0.00 58 1014.1
20190325002637 68 240 3.5 4.3 0.00 0.00 0.00 58 1014.1
20190325002336 68 245 4.3 4.3 0.00 0.00 0.00 59 1014.0
20190325002036 69 249 3.5 5.2 0.00 0.00 0.00 58 1014.0
20190325001734 69 272 6.1 7.8 0.00 0.00 0.00 58 1014.0
20190325001435 69 255 2.6 5.2 0.00 0.00 0.00 58 1014.1
20190325001133 69 255 4.3 7.0 0.00 0.00 0.00 58 1014.1
20190325000830 69 260 4.3 7.0 0.00 0.00 0.00 58 1013.9
20190325000529 69 274 4.3 8.7 0.00 0.00 0.00 58 1014.0
20190324235626 69 236 2.6 6.1 0.00 0.00 0.00 58 1014.2